This is the latest recevied weather packets stored in our database for station/object KA1AL. If no packets are shown the sender has not sent any weather packets the latest 10 day(s).
| Time | Temp. | Humidity | Pressure | Rain* | Wind** | Luminosity | Snow |
|---|---|---|---|---|---|---|---|
| 1778365693 | 6.11° C | 93% | 1012.9 hPa | 0 mm | - | 30 W/m² | - |
| 1778365388 | 6.11° C | 92% | 1013.1 hPa | 0 mm | - | 35 W/m² | - |
| 1778365084 | 6.11° C | 92% | 1013.1 hPa | 0 mm | - | 40 W/m² | - |
| 1778364782 | 6.67° C | 91% | 1013.1 hPa | 0 mm | - | 37 W/m² | - |
| 1778364476 | 6.67° C | 91% | 1013.1 hPa | 0 mm | - | 40 W/m² | - |
| 1778364173 | 6.67° C | 91% | 1013.3 hPa | 0 mm | - | 45 W/m² | - |
| 1778363868 | 6.67° C | 90% | 1013.2 hPa | 0 mm | - | 44 W/m² | - |
| 1778363565 | 6.67° C | 90% | 1013.2 hPa | 0 mm | - | 50 W/m² | - |
| 1778363262 | 6.67° C | 90% | 1013.6 hPa | 0 mm | - | 62 W/m² | - |
| 1778362959 | 6.67° C | 89% | 1013.2 hPa | 0 mm | - | 65 W/m² | - |
| 1778362656 | 6.67° C | 89% | 1013.2 hPa | 0 mm | - | 75 W/m² | - |
| 1778362352 | 6.67° C | 89% | 1013.5 hPa | 0 mm | - | 92 W/m² | - |
| 1778362050 | 7.22° C | 88% | 1013.5 hPa | 0 mm | - | 81 W/m² | - |
| 1778361747 | 6.67° C | 87% | 1013.4 hPa | 0 mm | - | 78 W/m² | - |
| 1778361442 | 7.22° C | 85% | 1013.5 hPa | 0 mm | - | 95 W/m² | - |
| 1778361139 | 7.22° C | 84% | 1013.5 hPa | 0 mm | - | 113 W/m² | - |
| 1778360835 | 7.22° C | 83% | 1013.5 hPa | 0 mm | - | 135 W/m² | - |
| 1778360533 | 7.78° C | 82% | 1013.3 hPa | 0 mm | - | 147 W/m² | - |
| 1778360233 | 7.78° C | 81% | 1013.3 hPa | 0 mm | - | 139 W/m² | - |
| 1778359932 | 7.78° C | 80% | 1013.4 hPa | 0 mm | - | 155 W/m² | - |
| 1778359629 | 8.33° C | 77% | 1013.5 hPa | 0 mm | - | 161 W/m² | - |
| 1778359325 | 8.33° C | 75% | 1013.2 hPa | 0 mm | - | 162 W/m² | - |
| 1778359021 | 8.89° C | 74% | 1013.4 hPa | 0 mm | - | 152 W/m² | - |
| 1778358720 | 8.89° C | 72% | 1013.3 hPa | 0 mm | - | 156 W/m² | - |
| 1778358415 | 9.44° C | 69% | 1013.1 hPa | 0 mm | - | 163 W/m² | - |
* Rain latest hour (hover to see other rain measurements)
** Current wind speed in m/s (hover to see current wind gust speed)